K2AS-13 Weather Reports


time (UTC)temp
C
wind
direction
speed
KPH
gust
KPH
rain 1hr
cm
rain 24hr
cm
rain mn
cm
humidity
%
barometer
mb
20260504050016 12 0.0 0.0 0.00 0.03 0.00 57 1006.8
20260504045016 12 203 1.6 6.4 0.00 0.03 0.00 54 1006.9
20260504044016 13 0.0 1.6 0.00 0.03 0.00 52 1006.9
20260504043016 13 225 4.8 19.3 0.00 0.03 0.00 52 1006.8
20260504042016 13 225 4.8 12.9 0.00 0.03 0.00 53 1006.8
20260504041036 13 0.0 0.0 0.00 0.03 0.00 53 1006.8
20260504040036 13 0.0 1.6 0.00 0.03 0.03 51 1006.9
20260504035017 13 248 6.4 17.7 0.00 0.03 0.03 52 1006.7
20260504034017 13 225 6.4 12.9 0.00 0.03 0.03 54 1006.8
20260504033017 12 0.0 1.6 0.00 0.03 0.03 55 1006.8
20260504032017 13 0.0 1.6 0.00 0.03 0.03 56 1006.9
20260504031017 12 0.0 1.6 0.00 0.03 0.03 57 1006.9
20260504030017 12 225 1.6 8.0 0.00 0.03 0.03 57 1007.0
20260504025017 12 0.0 0.0 0.00 0.03 0.03 60 1007.1
20260504024017 12 225 4.8 12.9 0.00 0.03 0.03 60 1007.2
20260504023017 12 248 3.2 16.1 0.00 0.03 0.03 65 1007.2
20260504022017 11 0.0 0.0 0.00 0.03 0.03 73 1007.3
20260504021017 11 0.0 0.0 0.00 0.03 0.03 77 1007.3
20260504020017 10 0.0 0.0 0.00 0.03 0.03 78 1007.5
20260504015037 10 0.0 0.0 0.00 0.03 0.03 80 1007.4
20260504014017 10 0.0 6.4 0.00 0.03 0.03 81 1007.4
20260504013017 10 0.0 0.0 0.00 0.03 0.03 84 1007.4
20260504012015 10 0.0 9.7 0.03 0.03 0.03 85 1007.7
20260504011017 10 0.0 0.0 0.03 0.03 0.03 86 1007.9
20260504010017 10 0.0 4.8 0.03 0.03 0.03 84 1007.9
20260504005017 10 0.0 3.2 0.03 0.03 0.03 84 1007.9
20260504004017 10 225 1.6 6.4 0.03 0.03 0.03 83 1008.0
20260504003017 10 270 6.4 16.1 0.03 0.03 0.03 79 1008.3
20260504002057 11 270 6.4 16.1 0.00 0.00 0.00 76 1008.2
20260504001017 11 270 8.0 14.5 0.00 0.00 0.00 73 1008.0
20260504000017 11 248 6.4 16.1 0.00 0.00 0.00 72 1007.8
20260503235017 11 248 9.7 20.9 0.00 0.00 0.00 69 1008.0
20260503234017 12 248 14.5 35.4 0.00 0.00 0.00 63 1007.9
20260503233037 12 248 9.7 22.5 0.00 0.00 0.00 57 1007.7
20260503232017 13 248 11.3 25.7 0.00 0.00 0.00 53 1007.6
20260503231017 13 225 9.7 24.1 0.00 0.00 0.00 52 1007.3
20260503230017 13 248 11.3 24.1 0.00 0.00 0.00 50 1007.2
20260503225017 13 248 1.6 14.5 0.00 0.00 0.00 51 1007.1
20260503224017 11 0.0 0.0 0.00 0.00 0.00 58 1007.0
20260503223017 10 0.0 0.0 0.00 0.00 0.00 66 1007.0
20260503222017 10 0.0 0.0 0.00 0.00 0.00 65 1007.0
20260503221017 9 0.0 0.0 0.00 0.00 0.00 67 1006.9
20260503220017 8 0.0 0.0 0.00 0.00 0.00 71 1007.6
20260503215017 8 0.0 0.0 0.00 0.00 0.00 69 1008.0
20260503214017 9 0.0 0.0 0.00 0.00 0.00 71 1008.0
20260503213017 10 0.0 0.0 0.00 0.00 0.00 69 1007.8
20260503212017 10 0.0 0.0 0.00 0.00 0.00 67 1007.3
20260503211017 10 0.0 0.0 0.00 0.00 0.00 65 1007.3
20260503210037 10 0.0 0.0 0.00 0.00 0.00 67 1007.4
20260503205017 10 0.0 0.0 0.00 0.00 0.00 65 1007.6
20260503204017 10 0.0 0.0 0.00 0.00 0.00 60 1007.6
20260503203017 10 0.0 0.0 0.00 0.00 0.00 63 1007.6
20260503202017 8 0.0 1.6 0.00 0.00 0.00 67 1007.8
20260503201017 9 0.0 1.6 0.00 0.00 0.00 64 1008.0
20260503200017 10 0.0 1.6 0.00 0.00 0.00 62 1008.1
20260503195017 10 23 3.2 8.0 0.00 0.00 0.00 60 1008.4
20260503194017 10 23 3.2 9.7 0.00 0.00 0.00 61 1008.6
20260503193017 10 23 4.8 9.7 0.00 0.00 0.00 65 1008.9
20260503192017 10 23 6.4 12.9 0.00 0.00 0.00 62 1009.0
20260503191017 10 0 1.6 6.4 0.00 0.00 0.00 62 1009.2
20260503190037 10 23 3.2 6.4 0.00 0.00 0.00 59 1009.4
20260503185017 10 0.0 4.8 0.00 0.00 0.00 60 1009.6
20260503184017 10 0.0 3.2 0.00 0.00 0.00 61 1009.8
20260503183037 8 0.0 0.0 0.00 0.00 0.00 60 1009.8
20260503182017 8 0.0 1.6 0.00 0.00 0.00 60 1009.9
20260503181017 9 0.0 0.0 0.00 0.00 0.00 59 1010.0
20260503180017 9 0.0 0.0 0.00 0.00 0.00 60 1010.1
20260503175016 9 0.0 1.6 0.00 0.00 0.00 60 1010.2
20260503174017 8 0.0 0.0 0.00 0.00 0.00 60 1010.3
20260503173037 8 0.0 1.6 0.00 0.00 0.00 61 1010.3
20260503172037 9 0.0 1.6 0.00 0.00 0.00 61 1010.4
20260503171017 8 0.0 1.6 0.00 0.00 0.00 57 1010.4
20260503131016 8 270 6.4 12.9 0.00 0.00 0.00 47 1012.6
20260503081016 3 0.0 0.0 0.00 0.00 0.00 82 1012.0
20260503072016 4 0.0 0.0 0.00 0.00 0.00 77 1012.0
20260503071016 4 0.0 0.0 0.00 0.00 0.00 77 1012.0
20260503055036 5 0.0 0.0 0.00 0.00 0.00 71 1012.2